Home   Weather   Olsztyn   Past weeks

Flag for Poland Past Weather in Olsztyn, Poland — Yesterday and Last 2 Weeks

39 °F

Sprinkles. Overcast.

Feels Like: 34 °F
Forecast: 40 / 47 °F
Wind: 7 mph from Southeast

Location: Ketrzyn

Current Time: Oct 22, 2016 at 5:41:23 AM

Latest Report: Oct 22, 2016 at 5:00 AM

Visibility: 3 mi

Pressure: 30.04 "Hg

Humidity: 93%

Dew Point: 37 °F

Location of OlsztynLocation

Past Weather in Olsztyn — Graph


Olsztyn Temperature Yesterday

Maximum temperature yesterday: 42 °F (at 12:00 AM)
Minimum temperature yesterday: 37 °F (at 9:00 AM)
Average temperature yesterday: 39 °F

High & Low Weather Summary for the Past Weeks

High50 °F (Oct 14, 3:00 PM)100% (Oct 7, 6:00 AM)30.60 "Hg (Oct 7, 6:00 AM)
Low31 °F (Oct 15, 7:00 AM)50% (Oct 17, 2:00 PM)29.97 "Hg (Oct 7, 10:00 PM)
Average41 °F86%30.25 "Hg
* Reported Oct 7 3:00 AM — Oct 22 3:00 AM, Olsztyn, Weather by CustomWeather, © 2016

Note: Actual official high and low records may vary slightly from our data, if they occured in-between our weather recording intervals... More about our weather records


Olsztyn Weather History for the Previous 24 Hours

Scroll right to see more
Time TempWeatherWind HumidityBarometerVisibility
3:00 AM
Sat, Oct 22
39 °FDrizzle. Overcast.7 mph93%30.05 "Hg2 mi
2:00 AM39 °FChilly.7 mph94%30.05 "Hg2 mi
1:00 AM39 °FRain. Overcast.8 mph94%30.06 "Hg2 mi
12:00 AM39 °FRain. Overcast.7 mph94%30.06 "Hg3 mi
11:00 PM
Fri, Oct 21
39 °FRain. Overcast.7 mph94%30.08 "Hg2 mi
10:00 PM40 °FLight rain. Overcast.7 mph93%30.09 "Hg2 mi
9:00 PM39 °FLight rain. Overcast.6 mph93%30.10 "Hg2 mi
8:00 PM39 °FRain. Overcast.5 mph93%30.09 "Hg2 mi
7:00 PM39 °FDrizzle. Overcast.6 mph93%30.10 "Hg2 mi
6:00 PM39 °FLight rain. Overcast.5 mph94%30.11 "Hg2 mi
5:00 PM39 °FLight rain. Cloudy.5 mph93%30.12 "Hg2 mi
4:00 PM39 °FChilly.6 mph92%30.11 "Hg3 mi
3:00 PM39 °FFog.6 mph90%30.11 "Hg4 mi
2:00 PM39 °FFog.7 mph91%30.11 "Hg3 mi
1:00 PM38 °FFog.6 mph91%30.13 "Hg3 mi
12:00 PM38 °FFog.8 mph91%30.13 "Hg3 mi
11:00 AM38 °FFog.8 mph92%30.13 "Hg3 mi
10:00 AM37 °FFog.7 mph94%30.12 "Hg2 mi
9:00 AM37 °FDrizzle. Cloudy.7 mph94%30.12 "Hg2 mi
8:00 AM37 °FRain showers. Cloudy.7 mph94%30.11 "Hg2 mi
7:00 AM37 °FDrizzle. Overcast.7 mph93%30.11 "Hg3 mi
6:00 AM37 °FLight rain. Overcast.7 mph93%30.11 "Hg2 mi
5:00 AM38 °FLight rain. Overcast.6 mph92%30.11 "Hg3 mi
Weather by CustomWeather, © 2016

See weather overviewHow to use our weather pages